User: anonymous   Login
Location: Bushey
(51.6333°N, 0.3667°W)
Time: 15:19:13
(UTC+00:00)
Language:

FALCON 9 DEB - Orbit

View from above orbital plane
View from above orbital plane
View from above satellite
View from above satellite

Ground track
Ground track

The orbit data is extracted from the following two-line orbital elements,

1 46086U 20055BM  21138.08503803  .00011411  00000-0  11943-3 0  9997
2 46086  53.0087 345.0523 0014094 130.1963 230.0287 15.64899487 48939
Epoch (UTC): 18 May 2021 02:02:27
Eccentricity: 0.0014094
inclination: 53.0087°
perigee height: 364 km
apogee height: 383 km
right ascension of ascending node: 345.0523°
argument of perigee: 130.1963°
revolutions per day: 15.64899487
mean anomaly at epoch: 230.0287°
orbit number at epoch: 4893

The dashed part of the orbit path shows where the satellite is in the earth's shadow,  

DLR